Home > Weather > Cuxhaven > Past weeks

Flag for Germany Weather for the Past 2 Weeks in Cuxhaven, Lower Saxony, Germany

Now
45 °F

Scattered clouds.


Feels Like: 37 °F
Forecast: 38 / 44 °F
Wind: 18 mph from Southwest

Location: Nordholz

Current Time: Feb 8, 2016 at 2:14:24 PM

Latest Report: Feb 8, 2016 at 1:50 PM


Visibility: N/A

Pressure: 29.06 "Hg

Humidity: 93%

Dew point: 43 °F

Location of CuxhavenLocation

Historic Weather in Cuxhaven — Graph

°F

Cuxhaven Temperature Yesterday

Maximum temperature yesterday: 52 °F (at 10:20 AM)
Minimum temperature yesterday: 43 °F (at 10:20 PM)
Average temperature yesterday: 47 °F

High & Low Weather Summary for the Past Weeks

 TemperatureHumidityPressure
High52 °F (Jan 25, 2:20 PM)100% (Jan 24, 1:20 PM)30.33 "Hg (Jan 24, 1:20 PM)
Low36 °F (Jan 30, 10:20 PM)66% (Feb 2, 10:20 AM)29.06 "Hg (Feb 8, 10:20 AM)
Average44 °F88%29.83 "Hg
* Reported Jan 24 12:20 PM — Feb 8 12:20 PM, Cuxhaven, Weather by CustomWeather, © 2016

Note: Actual official high and low records may vary slightly from our data, if they occured in-between our weather recording intervals... More about our weather records

Advertising

Cuxhaven Weather History for the Previous 24 Hours

 ConditionsComfort  
Time TempWeatherWind HumidityBarometerVisibility
12:20 PM
Mon, Feb 8
48 °FPartly sunny.22 mph76%29.06 "HgN/A
11:20 AM48 °FPartly sunny.23 mph76%29.09 "HgN/A
10:51 AM48 °FPartly sunny.25 mph76%29.09 "HgN/A
10:20 AM46 °FPartly sunny.23 mph82%29.06 "HgN/A
9:20 AM46 °FPartly sunny.21 mph82%29.09 "HgN/A
8:20 AM46 °FBroken clouds.24 mph82%29.09 "HgN/A
7:20 AM45 °FMostly cloudy.22 mph87%29.12 "HgN/A
6:20 AM43 °FRain. Mostly cloudy.18 mph87%29.15 "Hg5 mi
5:20 AM43 °FLight rain. Passing clouds.21 mph81%29.18 "HgN/A
4:20 AM43 °FLight rain. Passing clouds.22 mph81%29.21 "HgN/A
3:20 AM43 °FPartly cloudy.21 mph71%29.27 "HgN/A
2:20 AM43 °FPassing clouds.18 mph71%29.33 "HgN/A
1:20 AM43 °FPassing clouds.18 mph71%29.36 "HgN/A
12:20 AM43 °FPassing clouds.16 mph71%29.42 "HgN/A
11:20 PM
Sun, Feb 7
43 °FPassing clouds.16 mph71%29.45 "HgN/A
10:20 PM43 °FPassing clouds.15 mph76%29.45 "HgN/A
9:20 PM45 °FPassing clouds.18 mph71%29.47 "HgN/A
8:20 PM45 °FPassing clouds.16 mph71%29.45 "HgN/A
7:20 PM46 °FPassing clouds.15 mph71%29.47 "HgN/A
6:20 PM46 °FPassing clouds.14 mph71%29.47 "HgN/A
5:20 PM46 °FPartly cloudy.16 mph71%29.45 "HgN/A
4:20 PM48 °FBroken clouds.16 mph71%29.45 "HgN/A
3:20 PM48 °FBroken clouds.16 mph71%29.45 "HgN/A
2:20 PM50 °FBroken clouds.15 mph71%29.42 "HgN/A
Weather by CustomWeather, © 2016

See weather overviewHow to use our weather pages